This is the latest recevied weather packets stored in our database for station/object EA1L-13. If no packets are shown the sender has not sent any weather packets the latest 10 day(s).
| Time | Temp. | Humidity | Pressure | Rain* | Wind** | Luminosity | Snow |
|---|---|---|---|---|---|---|---|
| 1778229904 | 13.33° C | 100% | 1006.2 hPa | 0 mm | - | - | - |
| 1778229005 | 13.33° C | 100% | 1005.9 hPa | 0 mm | - | - | - |
| 1778228104 | 13.33° C | 100% | 1005.8 hPa | 0 mm | - | - | - |
| 1778227204 | 13.33° C | 100% | 1005.8 hPa | 0 mm | - | - | - |
| 1778226305 | 13.33° C | 100% | 1005.6 hPa | 0 mm | - | - | - |
| 1778225405 | 12.78° C | 100% | 1005.6 hPa | 0 mm | - | - | - |
| 1778224504 | 12.22° C | 100% | 1005.5 hPa | 0 mm | - | - | - |
| 1778223605 | 12.22° C | 100% | 1005.5 hPa | 0 mm | - | - | - |
| 1778222704 | 11.67° C | 100% | 1005.5 hPa | 0 mm | - | - | - |
| 1778221805 | 11.67° C | 100% | 1005.5 hPa | 0 mm | - | - | - |
| 1778220905 | 11.11° C | 100% | 1005.6 hPa | 0 mm | - | - | - |
| 1778220004 | 11.11° C | 100% | 1005.8 hPa | 0 mm | - | - | - |
| 1778219104 | 11.11° C | 100% | 1005.6 hPa | 0 mm | - | - | - |
| 1778218205 | 11.11° C | 100% | 1005.6 hPa | 0 mm | - | - | - |
| 1778217304 | 11.11° C | 100% | 1005.6 hPa | 0 mm | - | - | - |
| 1778216404 | 11.11° C | 100% | 1005.6 hPa | 0 mm | - | - | - |
| 1778215504 | 11.11° C | 100% | 1005.5 hPa | 0 mm | - | - | - |
| 1778214604 | 11.11° C | 100% | 1005.6 hPa | 0 mm | - | - | - |
| 1778213705 | 11.11° C | 100% | 1005.6 hPa | 0 mm | - | - | - |
| 1778212804 | 11.11° C | 100% | 1005.8 hPa | 0 mm | - | - | - |
| 1778211905 | 11.11° C | 100% | 1006.1 hPa | 0 mm | - | - | - |
| 1778211004 | 11.11° C | 100% | 1006 hPa | 0 mm | - | - | - |
| 1778210104 | 10.56° C | 100% | 1006.3 hPa | 0 mm | - | - | - |
| 1778209205 | 10.56° C | 100% | 1006.4 hPa | 0 mm | - | - | - |
| 1778208304 | 11.11° C | 100% | 1006.6 hPa | 0 mm | - | - | - |
* Rain latest hour (hover to see other rain measurements)
** Current wind speed in m/s (hover to see current wind gust speed)